This is the latest recevied weather packets stored in our database for station/object W3JGB. If no packets are shown the sender has not sent any weather packets the latest 10 day(s).
| Time | Temp. | Humidity | Pressure | Rain* | Wind** | Luminosity | Snow |
|---|---|---|---|---|---|---|---|
| 1778157696 | 11.11° C | 65% | 1012.6 hPa | 0 mm | - | 331 W/m² | - |
| 1778157394 | 11.11° C | 67% | 1012.6 hPa | 0 mm | - | 306 W/m² | - |
| 1778157090 | 10.56° C | 68% | 1012.8 hPa | 0 mm | - | 268 W/m² | - |
| 1778156786 | 11.67° C | 66% | 1013.1 hPa | 0 mm | - | 242 W/m² | - |
| 1778156482 | 10.56° C | 68% | 1012.7 hPa | 0 mm | - | 222 W/m² | - |
| 1778156178 | 10° C | 68% | 1013.1 hPa | 0 mm | - | 185 W/m² | - |
| 1778155874 | 10° C | 70% | 1012.6 hPa | 0 mm | - | 151 W/m² | - |
| 1778155570 | 9.44° C | 73% | 1012.7 hPa | 0 mm | - | 173 W/m² | - |
| 1778155267 | 9.44° C | 73% | 1012.5 hPa | 0 mm | - | 149 W/m² | - |
| 1778154963 | 8.89° C | 75% | 1012.8 hPa | 0 mm | - | 105 W/m² | - |
| 1778154659 | 8.89° C | 81% | 1012.7 hPa | 0 mm | - | 106 W/m² | - |
| 1778154355 | 8.33° C | 79% | 1012.5 hPa | 0 mm | - | 86 W/m² | - |
| 1778154052 | 7.78° C | 88% | 1012.4 hPa | 0 mm | - | 80 W/m² | - |
| 1778153749 | 7.78° C | 88% | 1012.4 hPa | 0 mm | - | 72 W/m² | - |
| 1778153447 | 7.22° C | 90% | 1012.5 hPa | 0 mm | - | 51 W/m² | - |
| 1778153145 | 6.11° C | 92% | 1012.5 hPa | 0 mm | - | 49 W/m² | - |
| 1778152841 | 5.56° C | 94% | 1012.5 hPa | 0 mm | - | 35 W/m² | - |
| 1778152538 | 5.56° C | 92% | 1012.4 hPa | 0 mm | - | 28 W/m² | - |
| 1778152235 | 5.56° C | 92% | 1012.4 hPa | 0 mm | - | 26 W/m² | - |
| 1778151931 | 5° C | 95% | 1012.4 hPa | 0 mm | - | 30 W/m² | - |
| 1778151628 | 4.44° C | 98% | 1012.5 hPa | 0 mm | - | 29 W/m² | - |
| 1778151325 | 3.89° C | 99% | 1012.4 hPa | 0 mm | - | 25 W/m² | - |
| 1778151020 | 3.33° C | 99% | 1012.4 hPa | 0 mm | - | 22 W/m² | - |
| 1778150718 | 2.78° C | 99% | 1012.4 hPa | 0 mm | - | 19 W/m² | - |
| 1778150414 | 2.78° C | 99% | 1012.2 hPa | 0 mm | - | 15 W/m² | - |
* Rain latest hour (hover to see other rain measurements)
** Current wind speed in m/s (hover to see current wind gust speed)